User: anonymous   Login
Location: Unspecified
(0.0000°N, 0.0000°E)
Time: 19:07:33
(UTC+00:00)
Language:

STARLINK-31263 - Orbit

View from above orbital plane
View from above orbital plane
View from above satellite
View from above satellite

Ground track
Ground track

The orbit is defined by the following mean orbital elements,

1 58832U          26145.66668980 +.00000000 +00000-0 +72807-3 0 00003
2 58832  53.1588 196.2781 0001343  82.2191 128.6871 15.33539593    05
Epoch (UTC): 25 May 2026 16:00:01
Eccentricity: 0.0001343
inclination: 53.1588°
perigee height: 464 km
apogee height: 466 km
right ascension of ascending node: 196.2781°
argument of perigee: 82.2191°
revolutions per day: 15.33539593
mean anomaly at epoch: 128.6871°

The dashed part of the orbit path shows where the satellite is in the earth's shadow,  

DLR